Regional Weather Roundup
Issued by NWS State College, PA

Home | Current Version | Previous Version | Graphics & Text | Print | Product List | Glossary On
Versions: 1 2 3 4 5 6 7 8 9 10 11 12 13 14 15 16 17 18 19 20 21 22 23 24 25 26 27 28 29 30 31 32 33 34 35 36 37 38 39 40 41 42 43 44 45 46 47 48 49 50
000
ASUS41 KCTP 271410
RWRCTP

REGIONAL WEATHER ROUNDUP
NATIONAL WEATHER SERVICE STATE COLLEGE PA
1000 AM EDT MON APR 27 2015

Note: "fair" indicates few or no clouds below 12,000 feet with no
significant weather and/or obstructions to visibility.

* = STATION THAT DOES NOT REPORT PRECIPITATION /E.G. RAIN...SNOW...ETC/
    THUNDER OR FOG.

PAZ002>004-007>009-013>016-020>023-029>032-271500-
WESTERN PENNSYLVANIA

CITY           SKY/WX    TMP DP  RH WIND       PRES   REMARKS
ERIE           LGT RAIN  38  37  97 NW6       29.87R FOG
MEADVILLE      LGT RAIN  39  35  86 NW12      29.85R FOG
FRANKLIN*      CLOUDY    39  32  75 NW9       29.85R
NEW CASTLE     CLOUDY    44  37  76 NW10G16   29.88R
BEAVER COUNTY  CLOUDY    43  36  75 NW8       29.86S
BUTLER*        PTSUNNY   43  34  70 NW3       29.87R
PITTSBURGH INT PTSUNNY   44  34  67 N12       29.86R
PITTSBURGH     CLOUDY    44  29  55 N8        29.84S
INDIANA*       CLOUDY    46  32  57 N10       29.86S
LATROBE        PTSUNNY   45  36  70 W6        29.86S
WASHINGTON CO* PTSUNNY   45  32  61 NW7       29.88S
$$

PAZ004>006-010>012-017>019-024>028-033>037-041-042-045-046-049>053-271500-
CENTRAL PENNSYLVANIA

CITY           SKY/WX    TMP DP  RH WIND       PRES   REMARKS
BRADFORD       CLOUDY    39  33  79 NW10      29.78R
DUBOIS         CLOUDY    44  33  65 NW10      29.79R
CLEARFIELD     CLOUDY    46  30  53 NW9       29.79S
JOHNSTOWN      CLOUDY    40  31  70 W14       29.79R
ALTOONA        CLOUDY    46  30  53 NW9       29.80R
STATE COLLEGE  CLOUDY    46  32  57 NW9       29.78S
WILLIAMSPORT   CLOUDY    51  33  50 N8        29.77R
SELINSGROVE    PTSUNNY   51  34  52 N8G18     29.78R
FT INDIANTOWN  CLOUDY    52  31  46 N8        29.76R
CAPITAL CITY   PTSUNNY   52  32  46 NW10      29.78R
HARRISBURG     PTSUNNY   53  31  42 NW10      29.76S
YORK           CLOUDY    51  36  56 NW9       29.78R
$$

PAZ038>040-043-044-047-048-054-055-060>062-067>071-271500-
EASTERN PENNSYLVANIA

CITY           SKY/WX    TMP DP  RH WIND       PRES   REMARKS
SCRANTON       CLOUDY    46  34  62 CALM      29.74R
MOUNT POCONO   CLOUDY    43  33  68 NW12      29.69S
ALLENTOWN      CLOUDY    50  35  56 NW9       29.74R
QUAKERTOWN*    CLOUDY    50  34  53 NW9       29.74R
READING        PTSUNNY   53  34  48 N12       29.74S
LANCASTER      PTSUNNY   54  35  48 N14       29.75S
COATESVILLE    PTSUNNY   52  36  54 NW12      29.75S
POTTSTOWN      CLOUDY    51  34  52 N9        29.75S
BLUE BELL      MOSUNNY   52  34  50 NW9       29.73R
DOYLESTOWN     CLOUDY    50  34  54 N8        29.72S
WILLOW GROVE   NOT AVBL
NORTH PHILA    CLOUDY    54  33  45 NW12G20   29.75R
PHILADELPHIA   PTSUNNY   55  32  41 NW14      29.74S
$$


USA.gov is the U.S. government's official web portal to all federal, state and local government web resources and services.